Location: Byszew
(52.1813°N, 19.2693°E)
Time: 20:01:02
(UTC+00:00)

SL-16 R/B - Pass Details

Date: 03 March 2021
Orbit: 843 x 845 km, 71.0° (Epoch: 16 April)

Event Time Altitude Azimuth Distance (km) Brightness Sun altitude
Rises 17:48:36 0° 213° (SSW) 3,392 5.7 -13.4°
Reaches altitude 10° 17:51:03 10° 214° (SW) 2,461 5.0 -13.8°
Maximum altitude 17:56:42 80° 301° (WNW) 864 2.3 -14.6°
Drops below altitude 10° 18:02:25 10° 30° (NNE) 2,478 4.4 -15.5°
Sets 18:04:53 0° 31° (NNE) 3,418 5.1 -15.9°
